When you browse on this site, cookies collect data to enhance your experience and personalize the content and advertising you see.
Visit our Privacy Policy to learn more. By continuing to use the site, you agree to this use of cookies and data.
  • In Austria
  • List of Countries
  • For 7 days
  • Water Temperature
  • Weather Map
  • News
  • Weather Widgets
  • user-avatar
    Login

    Hourly Weather Adelaide

    Today, 22 October, Tuesday

    Time Temperature Precipitation Wind Pressure Humidity
    00:00 +16°C° 0 mm 2 mps 764 mmHg 56%
    01:00 +16°C° 0 mm 2 mps 763 mmHg 54%
    02:00 +16°C° 0 mm 2 mps 763 mmHg 52%
    03:00 +16°C° 0 mm 2 mps 763 mmHg 53%
    04:00 +16°C° 0 mm 2 mps 763 mmHg 53%
    05:00 +16°C° 0 mm 2 mps 763 mmHg 54%
    06:00 +16°C° 0 mm 1 mps 764 mmHg 54%
    07:00 +20°C° 0 mm 1 mps 764 mmHg 48%
    08:00 +23°C° 0 mm 1 mps 764 mmHg 42%
    09:00 +26°C° 0 mm 1 mps 764 mmHg 34%
    10:00 +26°C° 0 mm 1 mps 763 mmHg 32%
    11:00 +27°C° 0 mm 2 mps 763 mmHg 30%
    12:00 +28°C° 0 mm 2 mps 762 mmHg 28%
    13:00 +28°C° 0 mm 2 mps 762 mmHg 28%
    14:00 +28°C° 0 mm 2 mps 761 mmHg 28%
    15:00 +28°C° 0 mm 2 mps 761 mmHg 27%
    16:00 +27°C° 0 mm 2 mps 760 mmHg 32%
    17:00 +25°C° 0 mm 2 mps 760 mmHg 38%
    18:00 +23°C° 0 mm 2 mps 760 mmHg 43%
    19:00 +21°C° 0 mm 3 mps 761 mmHg 41%
    20:00 +21°C° 0 mm 3 mps 761 mmHg 38%
    21:00 +20°C° 0 mm 3 mps 761 mmHg 33%
    22:00 +20°C° 0 mm 3 mps 761 mmHg 36%
    23:00 +20°C° 0 mm 3 mps 761 mmHg 39%

    Tomorrow, 23 October, Wednesday

    Time Temperature Precipitation Wind Pressure Humidity
    00:00 +20°C° 0 mm 3 mps 761 mmHg 42%
    01:00 +19°C° 0 mm 3 mps 760 mmHg 42%
    02:00 +19°C° 0 mm 3 mps 760 mmHg 42%
    03:00 +19°C° 0 mm 3 mps 759 mmHg 42%
    04:00 +19°C° 0 mm 3 mps 760 mmHg 42%
    05:00 +20°C° 0 mm 3 mps 760 mmHg 41%
    06:00 +20°C° 0 mm 3 mps 760 mmHg 41%
    07:00 +24°C° 0 mm 3 mps 760 mmHg 37%
    08:00 +26°C° 0 mm 3 mps 760 mmHg 33%
    09:00 +29°C° 0 mm 3 mps 760 mmHg 29%
    10:00 +29°C° 0 mm 3 mps 759 mmHg 27%
    11:00 +30°C° 0 mm 3 mps 759 mmHg 25%
    12:00 +30°C° 0 mm 3 mps 758 mmHg 24%
    13:00 +30°C° 0 mm 3 mps 758 mmHg 23%
    14:00 +31°C° 0 mm 2 mps 757 mmHg 23%
    15:00 +31°C° 0 mm 2 mps 757 mmHg 23%
    16:00 +29°C° 0 mm 2 mps 756 mmHg 26%
    17:00 +27°C° 0 mm 2 mps 756 mmHg 30%
    18:00 +25°C° 0 mm 1 mps 756 mmHg 33%
    19:00 +24°C° 0 mm 2 mps 756 mmHg 33%
    20:00 +24°C° 0 mm 2 mps 756 mmHg 32%
    21:00 +23°C° 0 mm 2 mps 756 mmHg 32%
    22:00 +22°C° 0 mm 3 mps 756 mmHg 32%
    23:00 +22°C° 0 mm 3 mps 755 mmHg 31%

    Day after tomorrow, 24 October, Thursday

    Time Temperature Precipitation Wind Pressure Humidity
    00:00 +22°C° 0 mm 3 mps 755 mmHg 31%
    01:00 +22°C° 0 mm 3 mps 754 mmHg 31%
    02:00 +22°C° 0 mm 3 mps 754 mmHg 31%
    03:00 +22°C° 0 mm 3 mps 753 mmHg 31%
    04:00 +23°C° 0 mm 4 mps 753 mmHg 30%
    05:00 +23°C° 0 mm 4 mps 753 mmHg 30%
    06:00 +25°C° 0 mm 4 mps 753 mmHg 29%
    07:00 +27°C° 0 mm 5 mps 753 mmHg 25%
    08:00 +29°C° 0 mm 6 mps 752 mmHg 22%
    09:00 +33°C° 0 mm 6 mps 752 mmHg 18%
    10:00 +33°C° 0 mm 7 mps 751 mmHg 18%
    11:00 +34°C° 0 mm 7 mps 750 mmHg 17%
    12:00 +34°C° 0 mm 7 mps 750 mmHg 17%
    13:00 +34°C° 0 mm 7 mps 749 mmHg 17%
    14:00 +35°C° 0 mm 7 mps 747 mmHg 16%
    15:00 +35°C° 0 mm 7 mps 746 mmHg 16%
    16:00 +32°C° 0 mm 7 mps 747 mmHg 28%
    17:00 +27°C° 0 mm 8 mps 747 mmHg 41%
    18:00 +22°C° 0 mm 8 mps 748 mmHg 53%
    19:00 +20°C° 0.1 mm 7 mps 749 mmHg 61%
    20:00 +17°C° 0.1 mm 6 mps 751 mmHg 69%
    21:00 +15°C° 0.1 mm 5 mps 752 mmHg 77%
    22:00 +15°C° 0 mm 5 mps 753 mmHg 75%
    23:00 +14°C° 0 mm 5 mps 753 mmHg 73%

    25 October, Friday

    Time Temperature Precipitation Wind Pressure Humidity
    00:00 +14°C° 0 mm 5 mps 754 mmHg 72%
    01:00 +14°C° 0 mm 5 mps 754 mmHg 73%
    02:00 +14°C° 0 mm 6 mps 754 mmHg 74%
    03:00 +13°C° 0 mm 6 mps 754 mmHg 75%
    04:00 +14°C° 0 mm 6 mps 754 mmHg 73%
    05:00 +14°C° 0 mm 7 mps 754 mmHg 70%
    06:00 +13°C° 0 mm 8 mps 754 mmHg 68%
    07:00 +13°C° 0 mm 8 mps 754 mmHg 65%
    08:00 +15°C° 0 mm 9 mps 754 mmHg 62%
    09:00 +15°C° 0 mm 9 mps 754 mmHg 60%
    10:00 +16°C° 0 mm 9 mps 754 mmHg 57%
    11:00 +17°C° 0 mm 9 mps 754 mmHg 54%
    12:00 +17°C° 0 mm 10 mps 754 mmHg 52%
    13:00 +17°C° 0.1 mm 10 mps 753 mmHg 55%
    14:00 +16°C° 0.1 mm 10 mps 753 mmHg 57%
    15:00 +16°C° 0.1 mm 10 mps 752 mmHg 60%
    16:00 +15°C° 0.1 mm 9 mps 753 mmHg 62%
    17:00 +15°C° 0.1 mm 9 mps 753 mmHg 64%
    18:00 +13°C° 0.1 mm 9 mps 753 mmHg 66%
    19:00 +13°C° 0.1 mm 9 mps 753 mmHg 69%
    20:00 +13°C° 0.1 mm 9 mps 754 mmHg 72%
    21:00 +12°C° 0.1 mm 9 mps 754 mmHg 74%
    22:00 +12°C° 0.1 mm 9 mps 754 mmHg 73%
    23:00 +12°C° 0.1 mm 9 mps 754 mmHg 71%

    26 October, Saturday

    Time Temperature Precipitation Wind Pressure Humidity
    00:00 +12°C° 0.1 mm 8 mps 754 mmHg 69%
    01:00 +12°C° 0.1 mm 8 mps 754 mmHg 69%
    02:00 +12°C° 0.1 mm 7 mps 754 mmHg 69%
    03:00 +11°C° 0.1 mm 7 mps 755 mmHg 68%
    04:00 +11°C° 0.1 mm 7 mps 755 mmHg 68%
    05:00 +11°C° 0.1 mm 7 mps 756 mmHg 68%
    06:00 +11°C° 0.1 mm 7 mps 756 mmHg 68%
    07:00 +13°C° 0.1 mm 6 mps 757 mmHg 67%
    08:00 +13°C° 0.1 mm 6 mps 757 mmHg 66%
    09:00 +13°C° 0.1 mm 6 mps 757 mmHg 64%
    10:00 +14°C° 0 mm 6 mps 758 mmHg 62%
    11:00 +15°C° 0 mm 6 mps 758 mmHg 59%
    12:00 +15°C° 0 mm 6 mps 758 mmHg 56%
    13:00 +15°C° 0 mm 6 mps 758 mmHg 56%
    14:00 +15°C° 0 mm 6 mps 758 mmHg 56%
    15:00 +15°C° 0 mm 6 mps 758 mmHg 57%
    16:00 +14°C° 0 mm 6 mps 758 mmHg 60%
    17:00 +13°C° 0 mm 6 mps 758 mmHg 64%
    18:00 +13°C° 0 mm 5 mps 758 mmHg 68%
    19:00 +12°C° 0 mm 5 mps 759 mmHg 71%
    20:00 +12°C° 0 mm 5 mps 759 mmHg 74%
    21:00 +12°C° 0 mm 5 mps 760 mmHg 77%
    22:00 +10°C° 0 mm 5 mps 760 mmHg 78%
    23:00 +11°C° 0 mm 4 mps 760 mmHg 78%

    27 October, Sunday

    Time Temperature Precipitation Wind Pressure Humidity
    00:00 +10°C° 0 mm 4 mps 760 mmHg 79%
    01:00 +11°C° 0 mm 4 mps 760 mmHg 79%
    02:00 +11°C° 0 mm 3 mps 760 mmHg 79%
    03:00 +11°C° 0 mm 3 mps 760 mmHg 78%
    04:00 +12°C° 0 mm 3 mps 760 mmHg 76%
    05:00 +12°C° 0 mm 3 mps 760 mmHg 74%
    06:00 +13°C° 0 mm 2 mps 761 mmHg 72%
    07:00 +13°C° 0 mm 3 mps 761 mmHg 67%
    08:00 +14°C° 0 mm 3 mps 761 mmHg 63%
    09:00 +16°C° 0 mm 3 mps 761 mmHg 58%
    10:00 +17°C° 0 mm 3 mps 761 mmHg 56%
    11:00 +17°C° 0 mm 3 mps 761 mmHg 55%
    12:00 +18°C° 0 mm 3 mps 761 mmHg 53%
    13:00 +18°C° 0 mm 3 mps 761 mmHg 54%
    14:00 +18°C° 0 mm 3 mps 761 mmHg 54%
    15:00 +18°C° 0 mm 4 mps 761 mmHg 55%
    16:00 +17°C° 0 mm 3 mps 761 mmHg 62%
    17:00 +16°C° 0 mm 3 mps 761 mmHg 68%
    18:00 +14°C° 0 mm 3 mps 762 mmHg 75%
    19:00 +14°C° 0 mm 2 mps 762 mmHg 79%
    20:00 +14°C° 0 mm 2 mps 762 mmHg 83%
    21:00 +13°C° 0 mm 2 mps 763 mmHg 87%
    22:00 +13°C° 0 mm 2 mps 763 mmHg 87%
    23:00 +12°C° 0 mm 2 mps 763 mmHg 87%

    28 October, Monday

    Time Temperature Precipitation Wind Pressure Humidity
    00:00 +12°C° 0 mm 2 mps 762 mmHg 87%
    01:00 +12°C° 0 mm 2 mps 762 mmHg 88%
    02:00 +10°C° 0 mm 2 mps 762 mmHg 88%
    03:00 +10°C° 0 mm 2 mps 762 mmHg 88%
    04:00 +12°C° 0 mm 2 mps 763 mmHg 86%
    05:00 +12°C° 0 mm 2 mps 763 mmHg 84%
    06:00 +13°C° 0 mm 2 mps 763 mmHg 82%
    07:00 +15°C° 0 mm 2 mps 763 mmHg 71%
    08:00 +17°C° 0 mm 2 mps 763 mmHg 60%
    09:00 +20°C° 0 mm 2 mps 762 mmHg 50%
    10:00 +21°C° 0 mm 2 mps 762 mmHg 46%
    11:00 +23°C° 0 mm 2 mps 761 mmHg 43%
    12:00 +24°C° 0 mm 2 mps 761 mmHg 40%
    13:00 +24°C° 0 mm 3 mps 760 mmHg 40%
    14:00 +24°C° 0 mm 3 mps 760 mmHg 40%
    15:00 +25°C° 0 mm 3 mps 759 mmHg 41%
    16:00 +22°C° 0 mm 3 mps 759 mmHg 45%
    17:00 +21°C° 0 mm 2 mps 759 mmHg 49%
    18:00 +19°C° 0 mm 2 mps 758 mmHg 53%
    19:00 +19°C° 0 mm 2 mps 759 mmHg 55%
    20:00 +18°C° 0 mm 2 mps 759 mmHg 56%
    21:00 +18°C° 0 mm 2 mps 759 mmHg 57%
    22:00 +18°C° 0 mm 2 mps 758 mmHg 54%
    23:00 +18°C° 0 mm 2 mps 758 mmHg 50%
    Show more